Downstream station:
SHEF ID: AVAO2 Salt Fork Arkansas River nr Alva
STATION TYPE:
Regulating: Stage = 10.00, Flow = 2311
PRECIP STAGE RIV-FLOW BAT-LOAD
in ft cfs volt
Ccp-Rev Ccp-Rev Ccp-Rev Ccp-Rev
(US/Central)
06/29 00:00 0.00 2.58 33 12.73
06/29 01:00 0.00 2.58 33 12.71
06/29 02:00 0.00 2.58 33 12.70
06/29 03:00 0.00 2.58 33 12.66
06/29 04:00 0.00 2.57 32 12.64
06/29 05:00 0.00 2.57 32 12.62
06/29 06:00 0.00 2.57 32 12.61
06/29 07:00 0.00 2.58 33 12.60
06/29 08:00 0.00 2.58 33 12.65
06/29 09:00 0.00 2.57 32 12.80
06/29 10:00 0.00 2.56 31 12.93
06/29 11:00 0.00 2.57 32 13.03
06/29 12:00 0.00 2.55 30 13.19
06/29 13:00 0.00 2.54 29 13.32
06/29 14:00 0.00 2.54 29 13.41
06/29 15:00 0.00 2.54 29 13.41
06/29 16:00 0.00 2.55 30 13.25
06/29 17:00 0.00 2.51 27 13.01
06/29 18:00 0.00 2.51 27 12.90
06/29 19:00 0.00 2.52 28 12.84
06/29 20:00 0.00 2.52 28 12.82
06/29 21:00 0.00 2.51 27 12.80
06/29 22:00 0.00 2.51 27 12.77
06/29 23:00 0.00 2.51 27 12.76